SCP
0 0 0 0 0 -0 0 0 0 0 -0 0 0 0 0 0 0 0 0 -0 -1 -0 -0 0 0 0 0 0 0 0 0 0 -0 0 0 0 -0 0 0 0 0 0 0 0 0 0 0 0 0
0 0 0 0 0 0 -0 0 0 0 0 0 -0 0 0 0 0 -0 0 0 -1 -0 -0 -0 0 0 0 0 0 0 0 0 0 0 0 0 0 0 0 0 0 0 0 0 0 0 0 0 0
-0 -0 0 0 0 -0 0 0 0 0 0 0 0 0 0 0 -0 0 0 -0 -0 0 0 0 0 0 0 0 0 0 0 0 0 0 0 0 0 0 0 0 0 0 0 0 0 0 0 0 0
0 0 0 0 0 0 0 0 0 -0 0 0 0 0 0 0 0 0 0 0 -0 0 0 0 0 0 0 0 0 0 0 0 0 0 0 0 0 0 0 0 0 0 0 0 0 0 0 0 0
0 0 -0 -0 -0 0 0 0 0 -0 0 0 0 0 0 0 0 0 -0 0 0 0 0 0 0 0 0 0 0 0 0 0 0 0 0 0 0 0 0 0 0 0 0 0 0 0 0 0 0
0 0 -0 0 0 0 0 0 0 0 0 0 0 0 0 0 -0 0 0 0 0 0 0 0 0 0 0 0 0 0 1 1 1 1 0 0 0 1 0 0 0 0 0 0 0 0 0 0 0
0 0 -0 -0 -0 0 0 0 -0 0 0 0 0 0 0 0 0 0 0 0 0 0 0 0 0 0 0 0 0 0 1 1 1 1 1 1 1 1 1 1 0 0 0 0 0 0 0 0 0
0 0 -0 -0 -0 0 0 0 0 0 0 0 0 0 0 0 0 0 -0 0 0 0 1 0 0 0 0 0 0 0 1 1 1 1 1 1 1 1 1 1 1 1 1 0 0 0 0 0 0
0 0 -0 -0 -0 0 0 0 0 0 0 0 0 0 0 0 0 0 0 -0 0 0 0 1 0 0 -0 0 0 1 1 1 1 1 1 1 1 0 0 0 0 1 1 1 0 0 0 0 0
-0 0 0 0 0 0 0 0 0 0 -0 0 0 0 0 0 0 0 0 0 0 0 0 0 0 0 0 0 1 0 0 0 0 0 0 1 0 0 0 0 0 1 1 1 1 1 0 0 0
-0 -0 0 0 0 0 0 0 0 0 0 0 0 0 0 0 0 0 0 0 0 0 0 0 0 0 0 0 2 2 2 1 1 0 0 0 0 0 0 0 1 1 1 1 1 1 0 0 0
-0 0 0 0 0 0 0 0 0 0 0 0 0 0 0 0 0 0 0 0 0 0 0 0 0 0 0 0 0 1 2 0 0 2 1 1 1 1 1 0 0 1 1 1 0 0 0 0 0
-0 0 0 0 0 0 0 0 0 0 0 0 0 0 0 0 0 0 0 0 0 0 0 0 0 0 0 0 0 0 0 1 2 1 0 0 -0 0 1 1 1 1 1 1 1 0 0 0 0
0 0 0 0 0 0 0 0 0 0 0 0 0 0 0 0 0 0 0 0 0 0 0 0 0 0 0 0 0 0 0 0 1 2 0 0 0 0 2 2 2 2 1 1 1 1 0 1 0
0 0 0 0 0 0 0 0 0 0 0 0 0 0 0 0 0 0 0 0 0 0 0 0 0 0 1 0 0 0 0 0 0 1 1 1 0 4 4 4 5 3 2 2 2 1 1 2 2
-0 0 -0 0 0 0 0 -0 0 0 0 0 0 0 0 0 0 0 0 0 0 0 0 0 0 0 0 0 0 0 0 0 0 0 1 2 3 4 8 6 4 2 3 2 4 3 2 1 2
0 0 -0 0 0 0 0 -0 0 0 0 0 0 0 0 0 0 0 0 0 0 0 0 0 0 0 0 0 0 0 0 0 0 0 0 0 3 3 5 6 5 3 1 4 4 3 2 2 2
0 0 0 0 0 0 -0 -0 0 0 0 0 0 0 0 0 0 0 0 0 0 0 0 0 0 0 0 0 0 0 0 0 0 0 0 1 1 2 4 4 4 3 2 2 3 3 3 2 1
0 0 0 -0 0 0 0 -0 -0 0 0 0 0 0 0 0 0 0 0 0 0 0 0 0 0 0 0 0 0 0 0 0 0 0 0 0 1 2 3 3 5 5 4 3 3 3 2 2 3
0 -0 -0 0 0 0 0 0 -0 0 0 0 0 0 0 0 0 0 0 0 0 0 0 0 0 0 0 0 0 0 0 0 0 0 0 0 0 0 1 3 3 6 5 4 4 3 3 3 2
0 0 -0 0 -0 0 0 0 0 0 0 0 0 0 0 0 0 0 0 0 0 0 0 0 0 0 0 0 0 0 0 0 0 0 0 1 1 2 2 2 3 3 2 4 4 4 3 3 4
-0 0 0 0 0 0 -0 0 -0 0 0 0 0 0 0 0 0 0 0 0 0 0 0 0 0 0 0 0 0 0 0 0 0 0 0 0 0 1 1 2 2 3 3 3 3 4 3 3 3
-0 0 -0 0 0 0 -0 0 0 0 0 0 0 -0 -0 0 0 0 0 0 0 0 0 0 0 0 0 0 0 0 0 0 0 0 0 0 0 0 0 1 1 1 2 2 2 2 2 2 2
-0 -0 0 0 0 0 0 -0 0 0 0 0 0 -0 0 0 0 0 0 0 0 0 0 0 0 0 0 0 0 0 0 0 0 0 0 0 0 0 0 0 0 1 1 1 2 2 2 2 3
0 0 0 0 0 0 0 0 0 0 0 0 0 0 0 0 0 0 0 0 0 0 0 0 0 0 0 0 0 0 0 0 0 0 0 0 0 0 0 0 1 1 1 1 1 1 1 2 2
0 0 0 0 0 -0 -0 0 0 0 0 0 0 0 0 0 0 0 0 0 0 0 0 0 0 0 0 0 0 0 0 0 0 0 0 0 0 0 0 0 0 0 0 0 1 1 1 2 2
0 0 0 0 0 0 -0 0 0 0 0 0 0 0 0 0 0 0 0 0 0 0 0 0 0 0 0 0 0 0 0 0 0 0 0 0 0 0 0 0 0 0 0 0 1 0 1 1 1
0 0 0 0 0 0 0 0 0 0 0 0 0 0 0 0 0 0 0 0 0 0 0 0 0 0 0 0 0 0 0 0 0 0 0 0 0 0 0 0 0 0 0 0 0 0 0 1 1
0 0 0 0 0 0 0 0 0 0 0 0 0 0 0 0 0 0 0 0 0 0 0 0 0 0 0 0 0 0 0 0 0 0 0 0 0 0 0 0 0 0 0 0 0 0 0 1 1
0 0 0 0 0 0 0 0 0 0 0 0 0 0 0 0 0 0 0 0 0 0 0 0 0 0 0 0 0 0 0 0 0 0 0 0 0 0 0 0 0 0 0 0 0 0 0 0 0
Wind_Speed_500mb
8 7 21 21 12 14 30 35 19 5 2 17 27 36 48 20 19 14 19 17 25 18 28 27 24 22 19 17 17 17 18 17 14 17 18 16 16 15 12 12 13 11 10 11 10 9 8 7 7
12 4 19 22 16 22 22 17 13 20 25 26 17 53 61 27 40 15 15 20 23 13 27 26 25 21 17 16 16 18 20 18 15 16 17 14 13 11 11 11 10 10 11 11 10 10 9 9 8
9 2 22 13 23 28 11 25 27 15 7 12 21 45 21 20 43 40 28 27 26 16 22 26 24 21 18 16 17 18 20 21 18 17 16 14 13 13 11 11 11 12 13 13 12 12 11 11 11
8 12 20 16 32 32 19 23 15 8 4 7 22 27 36 24 28 31 32 26 32 28 18 22 21 18 16 17 16 16 19 22 21 19 20 18 15 14 15 16 16 16 16 15 15 15 15 15 14
15 21 21 28 31 8 14 16 12 16 13 9 4 35 35 28 28 27 28 28 29 21 12 18 16 13 13 14 15 17 18 22 23 23 23 23 21 20 21 21 21 21 20 20 19 19 19 19 19
23 23 22 26 35 17 12 11 17 12 12 14 5 31 26 14 18 27 24 28 26 16 11 12 11 9 8 9 11 15 19 23 26 27 28 28 27 26 27 27 27 27 26 24 24 24 24 23 23
27 22 30 36 24 18 15 11 16 11 4 25 23 16 22 23 11 13 14 15 17 12 4 8 12 3 1 5 9 14 20 26 30 32 33 34 34 33 32 33 33 33 32 30 28 28 28 28 28
33 23 36 35 30 6 29 6 10 12 23 14 10 21 24 16 13 2 9 15 20 14 20 13 14 7 9 9 7 11 19 25 31 35 37 39 39 39 39 39 39 38 36 34 33 32 32 32 32
20 18 25 35 30 17 27 4 16 11 17 5 15 29 17 14 13 20 2 4 6 3 13 8 8 6 12 17 18 20 26 28 36 39 41 42 44 43 43 43 42 41 40 39 38 37 36 36 36
19 20 29 28 31 22 23 10 14 3 18 10 12 13 8 11 13 17 9 16 24 30 24 27 12 9 7 19 24 32 26 31 31 43 44 42 44 40 37 33 30 35 38 41 43 43 42 42 42
19 26 21 12 24 21 14 6 3 8 13 29 30 22 22 14 13 19 29 28 29 29 23 27 22 19 26 30 18 36 23 43 45 24 24 39 31 26 29 37 39 41 39 41 51 53 51 48 46
18 18 13 6 14 8 7 11 4 2 24 18 19 19 19 24 22 26 30 30 31 28 28 25 23 25 29 36 36 27 42 27 35 38 24 31 29 28 36 38 37 42 44 40 30 34 44 36 31
16 13 6 3 3 8 12 9 13 16 14 9 11 13 17 18 21 18 18 20 21 20 20 21 21 25 29 28 38 38 42 34 30 27 28 43 58 42 34 39 42 41 42 45 43 36 31 32 40
15 10 8 10 15 9 12 15 4 22 9 7 8 14 14 17 16 17 20 20 21 21 23 26 23 25 34 37 39 40 39 40 31 33 47 39 43 74 34 38 44 45 45 45 38 40 41 41 42
15 17 15 14 11 7 5 15 22 22 11 10 9 7 8 11 16 21 21 21 22 21 28 30 24 29 28 38 43 45 44 47 38 28 33 34 30 38 39 45 41 42 45 44 45 48 46 37 44
20 20 24 29 10 16 5 24 28 21 15 11 6 9 2 10 12 17 22 22 23 24 28 31 30 31 33 38 40 44 47 48 47 43 34 37 41 47 53 56 54 60 46 52 50 50 48 52 46
19 20 20 23 23 1 7 20 28 21 15 13 6 11 8 6 13 16 21 24 25 26 29 35 36 34 42 43 42 41 41 45 46 45 43 44 45 38 47 58 61 47 59 49 42 44 50 51 50
23 14 4 7 22 16 17 25 28 31 16 12 12 4 4 3 11 14 18 25 28 32 38 41 42 42 49 47 38 35 35 36 37 41 45 51 49 50 47 48 56 49 45 60 60 59 52 52 66
19 17 15 13 6 6 16 23 26 29 22 11 17 17 6 6 13 19 23 27 26 34 42 46 50 49 52 48 43 38 42 45 47 50 49 41 39 50 56 65 47 53 56 57 52 50 56 59 54
16 14 19 8 7 7 20 28 31 23 27 16 16 6 4 11 14 23 27 28 31 33 42 39 46 49 52 52 49 44 49 49 50 51 47 54 60 52 47 51 67 57 53 63 70 62 52 57 58
17 13 18 20 25 24 34 33 34 26 22 15 7 6 10 13 12 24 30 26 29 38 36 46 38 44 52 50 44 47 49 50 44 38 43 44 45 44 47 53 56 69 76 64 60 56 65 70 65
21 22 9 17 20 22 29 22 29 28 22 19 17 6 10 10 22 28 33 35 40 38 41 30 41 50 52 51 49 57 60 61 52 53 53 49 51 51 57 54 40 53 68 73 81 66 65 66 68
19 15 19 23 24 26 29 16 6 25 24 29 23 26 20 18 25 30 31 37 37 36 40 39 45 49 46 53 51 55 56 64 65 72 65 57 65 60 60 57 62 67 53 68 70 78 67 67 68
15 21 28 31 25 20 24 14 12 11 20 27 31 22 17 23 30 30 35 38 32 43 39 42 42 50 53 47 50 54 57 54 62 73 78 80 66 58 54 57 52 56 59 69 67 74 74 75 66
19 24 12 9 17 13 24 6 15 16 20 11 3 11 24 29 34 42 44 40 47 42 40 40 45 48 43 55 66 62 66 73 78 75 71 76 75 66 59 52 54 52 50 56 61 73 74 76 78
14 8 3 7 12 21 29 17 13 19 15 2 2 16 28 29 34 36 39 46 47 46 39 38 42 44 57 66 65 59 64 68 69 75 74 76 79 82 79 75 73 72 61 51 52 56 68 74 79
3 7 12 4 15 11 14 10 20 28 21 21 25 32 31 31 34 41 38 41 44 43 43 43 42 50 57 63 64 71 76 83 90 85 83 86 88 84 81 73 75 76 66 64 61 70 59 70 74
17 8 9 6 4 10 18 11 4 13 2 10 17 27 29 31 37 39 46 45 42 45 49 48 56 57 64 72 83 92 85 77 80 80 82 82 83 86 85 81 78 70 77 73 67 55 74 65 69
18 20 10 6 6 5 7 7 10 10 15 16 26 27 34 38 40 42 43 44 49 48 47 54 58 69 76 79 89 87 82 80 81 81 76 74 75 73 73 70 72 74 69 66 66 74 62 70 71
18 19 13 6 13 8 10 14 20 9 17 21 28 29 34 39 46 45 51 56 59 51 51 57 66 76 75 80 91 83 81 81 84 75 71 68 67 69 73 74 78 75 69 64 62 63 71 69 75
Wind_Direction_500mb
245 322 339 286 254 229 257 251 79 349 145 9 329 55 56 334 131 158 174 70 119 135 150 148 141 135 132 134 147 165 178 176 171 167 163 155 152 155 154 160 167 168 172 178 180 185 187 183 184
245 225 257 277 252 266 260 100 116 40 359 327 283 96 149 100 107 120 149 113 140 139 152 143 136 136 133 137 151 169 183 187 187 186 180 175 168 170 177 183 195 206 201 199 206 214 212 206 207
234 278 268 232 238 260 25 39 29 30 334 299 321 65 39 9 79 111 124 127 123 133 136 134 134 134 131 137 155 171 189 196 200 198 198 197 195 197 205 214 222 224 223 225 228 231 231 230 230
271 234 252 253 262 256 54 59 1 293 185 296 338 83 67 56 83 93 109 122 124 129 110 128 134 136 134 140 159 176 194 204 207 210 211 213 218 224 228 230 233 235 238 242 240 240 245 246 245
246 269 249 269 257 256 52 60 316 315 7 336 9 81 70 68 87 94 109 117 115 129 100 122 127 133 140 149 163 179 196 206 216 217 219 225 232 233 234 239 242 246 245 246 249 249 250 253 254
239 233 268 260 245 108 79 46 302 292 43 40 328 76 70 67 65 92 91 99 100 112 91 111 122 141 158 162 177 193 202 211 219 224 227 230 236 240 242 243 245 245 248 251 252 252 253 255 258
251 263 263 285 298 106 99 60 290 342 20 47 356 101 106 69 53 74 105 111 122 147 264 52 41 49 289 217 212 218 218 221 227 230 232 235 239 242 245 247 249 249 250 251 252 253 255 257 259
249 276 279 275 279 340 104 105 45 301 41 47 344 13 82 75 345 242 195 157 162 154 155 319 342 335 337 350 345 290 265 247 239 239 242 244 243 243 244 246 247 248 252 256 258 256 256 257 259
266 268 262 262 245 103 115 213 132 1 298 67 54 64 49 30 346 335 8 257 203 49 283 162 283 182 335 292 300 285 292 289 268 251 246 246 248 249 248 248 248 247 250 255 259 262 262 261 259
233 236 268 8 13 32 78 339 70 334 225 214 185 112 68 4 6 341 357 327 19 34 25 38 10 41 318 355 293 289 272 295 288 265 260 255 257 257 258 268 267 264 262 262 261 259 260 261 263
226 248 357 31 16 7 28 95 224 304 26 23 11 32 35 6 34 360 13 23 17 15 356 18 347 315 278 265 322 301 280 272 286 293 284 271 270 273 258 241 257 264 270 276 267 261 259 262 266
262 251 314 41 64 322 298 282 28 337 62 28 33 28 31 24 32 19 14 15 12 9 340 326 304 285 270 275 278 285 312 296 274 269 248 254 255 249 250 255 247 258 267 275 279 289 269 263 274
247 264 237 24 300 253 301 277 262 108 61 55 53 48 60 41 41 48 29 25 21 14 346 332 335 322 305 280 272 274 263 298 307 300 290 280 261 232 247 250 243 242 263 263 263 271 275 265 267
346 326 201 238 240 151 255 223 203 106 135 124 83 49 53 58 48 40 29 22 16 12 345 341 358 331 307 302 293 281 263 267 269 300 296 287 291 231 224 248 255 252 243 242 260 257 257 248 255
280 265 233 217 234 199 277 228 185 120 164 149 145 115 104 51 38 30 17 9 359 3 336 339 349 314 320 305 302 297 290 277 266 268 273 286 257 262 259 255 252 251 250 257 245 250 247 252 243
238 223 246 181 157 148 250 274 139 138 175 205 165 174 243 99 43 22 7 359 351 349 339 334 325 326 301 299 297 295 294 291 287 265 251 264 260 255 251 252 254 249 247 258 254 249 251 255 253
204 237 196 158 170 116 193 299 129 166 178 250 214 230 127 349 22 16 356 346 343 343 333 332 324 319 309 306 301 297 295 293 291 288 271 251 256 254 263 260 260 264 239 241 247 252 253 247 253
343 315 340 134 154 177 252 265 174 178 204 230 230 213 320 56 331 341 341 332 332 336 333 330 328 324 317 317 319 302 293 287 286 288 289 290 268 267 252 265 267 265 253 243 248 250 253 253 244
309 298 294 306 88 24 276 280 294 186 176 202 209 185 215 319 328 329 332 317 318 324 328 327 329 325 322 325 326 305 290 281 268 256 248 249 249 248 257 253 256 254 257 257 241 253 245 248 246
300 289 269 246 241 242 266 261 269 264 179 184 165 170 33 338 319 319 317 321 325 325 327 323 325 323 323 323 311 320 319 312 308 307 299 275 270 262 252 248 252 246 249 251 248 243 246 241 245
255 267 316 340 333 302 264 260 247 223 125 130 139 179 251 261 317 328 331 327 335 332 325 325 322 325 322 322 313 304 295 292 291 295 292 297 294 285 273 265 259 248 246 248 250 248 244 248 244
295 11 345 296 288 283 335 303 296 174 153 155 301 155 273 316 335 342 329 339 335 328 328 322 327 329 325 317 312 311 312 310 301 289 282 277 274 276 273 270 262 273 260 253 249 245 249 243 246
289 4 305 286 280 284 281 264 354 111 80 87 189 243 248 337 339 332 339 332 327 329 324 324 326 330 324 320 315 311 305 312 309 308 300 287 271 268 267 273 272 257 261 263 257 252 247 246 247
299 289 264 243 242 250 311 277 144 125 152 172 213 231 313 338 331 341 340 326 332 327 316 324 324 326 327 324 316 313 309 309 306 303 300 299 296 287 278 268 269 279 272 262 263 258 252 245 244
232 259 290 291 222 231 230 216 101 140 150 94 90 321 345 340 340 342 333 338 334 320 324 321 323 325 326 320 317 309 302 296 297 298 296 294 295 286 270 267 271 268 267 271 265 266 258 249 246
306 324 116 228 343 321 318 340 97 76 68 4 32 350 344 331 337 335 336 338 324 322 321 328 324 323 324 320 316 310 306 303 297 293 286 284 282 278 277 264 255 260 260 261 262 266 261 256 251
267 298 64 286 298 290 258 74 106 63 41 17 346 339 324 333 338 334 339 328 326 330 334 333 332 330 326 319 312 302 296 294 294 292 290 284 279 281 281 280 275 262 265 264 265 259 264 261 257
252 30 242 140 287 295 323 345 81 176 74 253 310 314 318 330 335 346 334 327 335 329 327 330 336 331 320 309 301 301 305 303 302 298 295 293 286 276 273 269 266 268 260 261 256 263 256 262 258
192 224 212 321 315 263 304 319 52 118 206 328 327 326 311 339 340 335 324 332 339 336 335 332 334 321 316 308 307 310 305 301 301 298 294 290 289 284 277 275 273 271 263 265 264 255 260 257 260
311 301 303 289 283 184 264 269 307 305 31 293 280 294 340 338 335 334 342 341 334 334 337 335 324 313 313 311 313 311 309 308 307 305 303 300 292 282 275 267 268 267 264 259 257 257 251 258 257
Wind_Speed_850mb
8 7 21 21 12 14 30 35 19 5 2 17 27 36 48 20 19 14 19 17 25 18 28 27 24 22 19 17 17 17 18 17 14 17 18 16 16 15 12 12 13 11 10 11 10 9 8 7 7
12 4 19 22 16 22 22 17 13 20 25 26 17 53 61 27 40 15 15 20 23 13 27 26 25 21 17 16 16 18 20 18 15 16 17 14 13 11 11 11 10 10 11 11 10 10 9 9 8
9 2 22 13 23 28 11 25 27 15 7 12 21 45 21 20 43 40 28 27 26 16 22 26 24 21 18 16 17 18 20 21 18 17 16 14 13 13 11 11 11 12 13 13 12 12 11 11 11
8 12 20 16 32 32 19 23 15 8 4 7 22 27 36 24 28 31 32 26 32 28 18 22 21 18 16 17 16 16 19 22 21 19 20 18 15 14 15 16 16 16 16 15 15 15 15 15 14
15 21 21 28 31 8 14 16 12 16 13 9 4 35 35 28 28 27 28 28 29 21 12 18 16 13 13 14 15 17 18 22 23 23 23 23 21 20 21 21 21 21 20 20 19 19 19 19 19
23 23 22 26 35 17 12 11 17 12 12 14 5 31 26 14 18 27 24 28 26 16 11 12 11 9 8 9 11 15 19 23 26 27 28 28 27 26 27 27 27 27 26 24 24 24 24 23 23
27 22 30 36 24 18 15 11 16 11 4 25 23 16 22 23 11 13 14 15 17 12 4 8 12 3 1 5 9 14 20 26 30 32 33 34 34 33 32 33 33 33 32 30 28 28 28 28 28
33 23 36 35 30 6 29 6 10 12 23 14 10 21 24 16 13 2 9 15 20 14 20 13 14 7 9 9 7 11 19 25 31 35 37 39 39 39 39 39 39 38 36 34 33 32 32 32 32
20 18 25 35 30 17 27 4 16 11 17 5 15 29 17 14 13 20 2 4 6 3 13 8 8 6 12 17 18 20 26 28 36 39 41 42 44 43 43 43 42 41 40 39 38 37 36 36 36
19 20 29 28 31 22 23 10 14 3 18 10 12 13 8 11 13 17 9 16 24 30 24 27 12 9 7 19 24 32 26 31 31 43 44 42 44 40 37 33 30 35 38 41 43 43 42 42 42
19 26 21 12 24 21 14 6 3 8 13 29 30 22 22 14 13 19 29 28 29 29 23 27 22 19 26 30 18 36 23 43 45 24 24 39 31 26 29 37 39 41 39 41 51 53 51 48 46
18 18 13 6 14 8 7 11 4 2 24 18 19 19 19 24 22 26 30 30 31 28 28 25 23 25 29 36 36 27 42 27 35 38 24 31 29 28 36 38 37 42 44 40 30 34 44 36 31
16 13 6 3 3 8 12 9 13 16 14 9 11 13 17 18 21 18 18 20 21 20 20 21 21 25 29 28 38 38 42 34 30 27 28 43 58 42 34 39 42 41 42 45 43 36 31 32 40
15 10 8 10 15 9 12 15 4 22 9 7 8 14 14 17 16 17 20 20 21 21 23 26 23 25 34 37 39 40 39 40 31 33 47 39 43 74 34 38 44 45 45 45 38 40 41 41 42
15 17 15 14 11 7 5 15 22 22 11 10 9 7 8 11 16 21 21 21 22 21 28 30 24 29 28 38 43 45 44 47 38 28 33 34 30 38 39 45 41 42 45 44 45 48 46 37 44
20 20 24 29 10 16 5 24 28 21 15 11 6 9 2 10 12 17 22 22 23 24 28 31 30 31 33 38 40 44 47 48 47 43 34 37 41 47 53 56 54 60 46 52 50 50 48 52 46
19 20 20 23 23 1 7 20 28 21 15 13 6 11 8 6 13 16 21 24 25 26 29 35 36 34 42 43 42 41 41 45 46 45 43 44 45 38 47 58 61 47 59 49 42 44 50 51 50
23 14 4 7 22 16 17 25 28 31 16 12 12 4 4 3 11 14 18 25 28 32 38 41 42 42 49 47 38 35 35 36 37 41 45 51 49 50 47 48 56 49 45 60 60 59 52 52 66
19 17 15 13 6 6 16 23 26 29 22 11 17 17 6 6 13 19 23 27 26 34 42 46 50 49 52 48 43 38 42 45 47 50 49 41 39 50 56 65 47 53 56 57 52 50 56 59 54
16 14 19 8 7 7 20 28 31 23 27 16 16 6 4 11 14 23 27 28 31 33 42 39 46 49 52 52 49 44 49 49 50 51 47 54 60 52 47 51 67 57 53 63 70 62 52 57 58
17 13 18 20 25 24 34 33 34 26 22 15 7 6 10 13 12 24 30 26 29 38 36 46 38 44 52 50 44 47 49 50 44 38 43 44 45 44 47 53 56 69 76 64 60 56 65 70 65
21 22 9 17 20 22 29 22 29 28 22 19 17 6 10 10 22 28 33 35 40 38 41 30 41 50 52 51 49 57 60 61 52 53 53 49 51 51 57 54 40 53 68 73 81 66 65 66 68
19 15 19 23 24 26 29 16 6 25 24 29 23 26 20 18 25 30 31 37 37 36 40 39 45 49 46 53 51 55 56 64 65 72 65 57 65 60 60 57 62 67 53 68 70 78 67 67 68
15 21 28 31 25 20 24 14 12 11 20 27 31 22 17 23 30 30 35 38 32 43 39 42 42 50 53 47 50 54 57 54 62 73 78 80 66 58 54 57 52 56 59 69 67 74 74 75 66
19 24 12 9 17 13 24 6 15 16 20 11 3 11 24 29 34 42 44 40 47 42 40 40 45 48 43 55 66 62 66 73 78 75 71 76 75 66 59 52 54 52 50 56 61 73 74 76 78
14 8 3 7 12 21 29 17 13 19 15 2 2 16 28 29 34 36 39 46 47 46 39 38 42 44 57 66 65 59 64 68 69 75 74 76 79 82 79 75 73 72 61 51 52 56 68 74 79
3 7 12 4 15 11 14 10 20 28 21 21 25 32 31 31 34 41 38 41 44 43 43 43 42 50 57 63 64 71 76 83 90 85 83 86 88 84 81 73 75 76 66 64 61 70 59 70 74
17 8 9 6 4 10 18 11 4 13 2 10 17 27 29 31 37 39 46 45 42 45 49 48 56 57 64 72 83 92 85 77 80 80 82 82 83 86 85 81 78 70 77 73 67 55 74 65 69
18 20 10 6 6 5 7 7 10 10 15 16 26 27 34 38 40 42 43 44 49 48 47 54 58 69 76 79 89 87 82 80 81 81 76 74 75 73 73 70 72 74 69 66 66 74 62 70 71
18 19 13 6 13 8 10 14 20 9 17 21 28 29 34 39 46 45 51 56 59 51 51 57 66 76 75 80 91 83 81 81 84 75 71 68 67 69 73 74 78 75 69 64 62 63 71 69 75
Wind_Direction_850mb
245 322 339 286 254 229 257 251 79 349 145 9 329 55 56 334 131 158 174 70 119 135 150 148 141 135 132 134 147 165 178 176 171 167 163 155 152 155 154 160 167 168 172 178 180 185 187 183 184
245 225 257 277 252 266 260 100 116 40 359 327 283 96 149 100 107 120 149 113 140 139 152 143 136 136 133 137 151 169 183 187 187 186 180 175 168 170 177 183 195 206 201 199 206 214 212 206 207
234 278 268 232 238 260 25 39 29 30 334 299 321 65 39 9 79 111 124 127 123 133 136 134 134 134 131 137 155 171 189 196 200 198 198 197 195 197 205 214 222 224 223 225 228 231 231 230 230
271 234 252 253 262 256 54 59 1 293 185 296 338 83 67 56 83 93 109 122 124 129 110 128 134 136 134 140 159 176 194 204 207 210 211 213 218 224 228 230 233 235 238 242 240 240 245 246 245
246 269 249 269 257 256 52 60 316 315 7 336 9 81 70 68 87 94 109 117 115 129 100 122 127 133 140 149 163 179 196 206 216 217 219 225 232 233 234 239 242 246 245 246 249 249 250 253 254
239 233 268 260 245 108 79 46 302 292 43 40 328 76 70 67 65 92 91 99 100 112 91 111 122 141 158 162 177 193 202 211 219 224 227 230 236 240 242 243 245 245 248 251 252 252 253 255 258
251 263 263 285 298 106 99 60 290 342 20 47 356 101 106 69 53 74 105 111 122 147 264 52 41 49 289 217 212 218 218 221 227 230 232 235 239 242 245 247 249 249 250 251 252 253 255 257 259
249 276 279 275 279 340 104 105 45 301 41 47 344 13 82 75 345 242 195 157 162 154 155 319 342 335 337 350 345 290 265 247 239 239 242 244 243 243 244 246 247 248 252 256 258 256 256 257 259
266 268 262 262 245 103 115 213 132 1 298 67 54 64 49 30 346 335 8 257 203 49 283 162 283 182 335 292 300 285 292 289 268 251 246 246 248 249 248 248 248 247 250 255 259 262 262 261 259
233 236 268 8 13 32 78 339 70 334 225 214 185 112 68 4 6 341 357 327 19 34 25 38 10 41 318 355 293 289 272 295 288 265 260 255 257 257 258 268 267 264 262 262 261 259 260 261 263
226 248 357 31 16 7 28 95 224 304 26 23 11 32 35 6 34 360 13 23 17 15 356 18 347 315 278 265 322 301 280 272 286 293 284 271 270 273 258 241 257 264 270 276 267 261 259 262 266
262 251 314 41 64 322 298 282 28 337 62 28 33 28 31 24 32 19 14 15 12 9 340 326 304 285 270 275 278 285 312 296 274 269 248 254 255 249 250 255 247 258 267 275 279 289 269 263 274
247 264 237 24 300 253 301 277 262 108 61 55 53 48 60 41 41 48 29 25 21 14 346 332 335 322 305 280 272 274 263 298 307 300 290 280 261 232 247 250 243 242 263 263 263 271 275 265 267
346 326 201 238 240 151 255 223 203 106 135 124 83 49 53 58 48 40 29 22 16 12 345 341 358 331 307 302 293 281 263 267 269 300 296 287 291 231 224 248 255 252 243 242 260 257 257 248 255
280 265 233 217 234 199 277 228 185 120 164 149 145 115 104 51 38 30 17 9 359 3 336 339 349 314 320 305 302 297 290 277 266 268 273 286 257 262 259 255 252 251 250 257 245 250 247 252 243
238 223 246 181 157 148 250 274 139 138 175 205 165 174 243 99 43 22 7 359 351 349 339 334 325 326 301 299 297 295 294 291 287 265 251 264 260 255 251 252 254 249 247 258 254 249 251 255 253
204 237 196 158 170 116 193 299 129 166 178 250 214 230 127 349 22 16 356 346 343 343 333 332 324 319 309 306 301 297 295 293 291 288 271 251 256 254 263 260 260 264 239 241 247 252 253 247 253
343 315 340 134 154 177 252 265 174 178 204 230 230 213 320 56 331 341 341 332 332 336 333 330 328 324 317 317 319 302 293 287 286 288 289 290 268 267 252 265 267 265 253 243 248 250 253 253 244
309 298 294 306 88 24 276 280 294 186 176 202 209 185 215 319 328 329 332 317 318 324 328 327 329 325 322 325 326 305 290 281 268 256 248 249 249 248 257 253 256 254 257 257 241 253 245 248 246
300 289 269 246 241 242 266 261 269 264 179 184 165 170 33 338 319 319 317 321 325 325 327 323 325 323 323 323 311 320 319 312 308 307 299 275 270 262 252 248 252 246 249 251 248 243 246 241 245
255 267 316 340 333 302 264 260 247 223 125 130 139 179 251 261 317 328 331 327 335 332 325 325 322 325 322 322 313 304 295 292 291 295 292 297 294 285 273 265 259 248 246 248 250 248 244 248 244
295 11 345 296 288 283 335 303 296 174 153 155 301 155 273 316 335 342 329 339 335 328 328 322 327 329 325 317 312 311 312 310 301 289 282 277 274 276 273 270 262 273 260 253 249 245 249 243 246
289 4 305 286 280 284 281 264 354 111 80 87 189 243 248 337 339 332 339 332 327 329 324 324 326 330 324 320 315 311 305 312 309 308 300 287 271 268 267 273 272 257 261 263 257 252 247 246 247
299 289 264 243 242 250 311 277 144 125 152 172 213 231 313 338 331 341 340 326 332 327 316 324 324 326 327 324 316 313 309 309 306 303 300 299 296 287 278 268 269 279 272 262 263 258 252 245 244
232 259 290 291 222 231 230 216 101 140 150 94 90 321 345 340 340 342 333 338 334 320 324 321 323 325 326 320 317 309 302 296 297 298 296 294 295 286 270 267 271 268 267 271 265 266 258 249 246
306 324 116 228 343 321 318 340 97 76 68 4 32 350 344 331 337 335 336 338 324 322 321 328 324 323 324 320 316 310 306 303 297 293 286 284 282 278 277 264 255 260 260 261 262 266 261 256 251
267 298 64 286 298 290 258 74 106 63 41 17 346 339 324 333 338 334 339 328 326 330 334 333 332 330 326 319 312 302 296 294 294 292 290 284 279 281 281 280 275 262 265 264 265 259 264 261 257
252 30 242 140 287 295 323 345 81 176 74 253 310 314 318 330 335 346 334 327 335 329 327 330 336 331 320 309 301 301 305 303 302 298 295 293 286 276 273 269 266 268 260 261 256 263 256 262 258
192 224 212 321 315 263 304 319 52 118 206 328 327 326 311 339 340 335 324 332 339 336 335 332 334 321 316 308 307 310 305 301 301 298 294 290 289 284 277 275 273 271 263 265 264 255 260 257 260
311 301 303 289 283 184 264 269 307 305 31 293 280 294 340 338 335 334 342 341 334 334 337 335 324 313 313 311 313 311 309 308 307 305 303 300 292 282 275 267 268 267 264 259 257 257 251 258 257